[[[{"header":{"parameterUnit":"kt","parameterCategory":2,"dx":1,"dy":1,"la1":30.253999710083008,"la2":30.299108505249023,"lo1":-89.0895004272461,"lo2":-89.04439544677734,"nx":28,"ny":28,"refTime":"2022-09-18T21:00:00:Z","depth":0,"parameterNumber":1,"parameterNumberName":"U-component_of_WINDS"},"data":[-1.2963,-1.3062,-1.3056,-1.3166,-1.3179,-1.3254,-1.3279,-1.3311,-1.3334,-1.3423,-1.3473,-1.3477,-1.3499,-1.3558,-1.3613,-1.3614,-1.3639,-1.3678,-1.3674,-1.3501,-1.3477,-1.3454,-1.3431,-1.3683,-1.3683,-1.3855,-1.3857,-1.3858,-1.2837,-1.2851,-1.2907,-1.2958,-1.3006,-1.2964,-1.3,-1.3044,-1.3112,-1.3142,-1.319,-1.3269,-1.333,-1.3338,-1.3397,-1.3444,-1.3429,-1.346,-1.3459,-1.3464,-1.3278,-1.3254,-1.3472,-1.3472,-1.3472,-1.3472,-1.3471,-1.3471,-1.2607,-1.2666,-1.2693,-1.2754,-1.2777,-1.2811,-1.2867,-1.287,-1.2925,-1.2985,-1.2966,-1.3044,-1.3073,-1.314,-1.3161,-1.3222,-1.3186,-1.322,-1.3229,-1.3239,-1.3251,-1.301,-1.3231,-1.323,-1.3229,-1.3229,-1.3228,0,-1.2438,-1.2428,-1.2481,-1.2533,-1.2577,-1.2616,-1.2652,-1.2686,-1.2664,-1.2711,-1.2778,-1.2816,-1.2891,-1.2955,-1.3008,-1.3023,-1.2988,-1.2982,-1.3006,-1.302,-1.3024,-1.3027,-1.2727,-1.2977,-1.2975,-1.2974,-1.2972,-1.2972,-1.2209,-1.2277,-1.2302,-1.234,-1.2358,-1.242,-1.2455,-1.2431,-1.2471,-1.2511,-1.2565,-1.2627,-1.2676,-1.2786,-1.2791,-1.2848,-1.2832,-1.2929,-1.2841,-1.2849,-1.2839,-1.2837,-1.2845,-1.2948,-1.2951,-1.2954,-1.2956,0,-1.2081,-1.207,-1.2174,-1.2192,-1.2198,-1.2272,-1.2288,-1.2346,-1.2342,-1.2423,-1.244,-1.2437,-1.2504,-1.2492,-1.2567,-1.256,-1.2685,-1.2665,-1.2675,-1.2672,-1.276,-1.2754,-1.3042,-1.3079,-1.2813,-1.2816,-1.2818,0,-1.1883,-1.1975,-1.1953,-1.2015,-1.2115,-1.2088,-1.2189,-1.2197,-1.222,-1.2283,-1.2239,-1.2299,-1.2275,-1.2334,-1.2323,-1.2422,-1.2435,-1.2437,-1.2434,-1.2444,-1.2445,-1.2469,-1.2459,-1.2419,-1.2418,-1.2417,-1.2416,0,-1.1688,-1.1782,-1.1881,-1.1901,-1.193,-1.1977,-1.1991,-1.2017,-1.2053,-1.2097,-1.212,-1.2174,-1.2204,-1.2247,-1.2233,-1.2174,-1.2353,-1.2269,-1.2356,-1.2356,-1.24,-1.2398,-1.2651,-1.2414,-1.2413,-1.2413,-1.2412,0,-1.1529,-1.1572,-1.1716,-1.1739,-1.1765,-1.183,-1.1881,-1.1933,-1.1965,-1.1962,-1.1996,-1.1967,-1.205,-1.1968,-1.2084,-1.2012,-1.2044,-1.2053,-1.2059,-1.207,-1.198,-1.2129,-1.2368,-1.2395,-1.2074,-1.2071,-1.2069,0,-1.1311,-1.1452,-1.143,-1.1567,-1.1632,-1.1578,-1.165,-1.1678,-1.168,-1.1736,-1.1738,-1.1802,-1.1738,-1.1757,-1.1815,-1.1821,-1.1915,-1.1807,-1.1893,-1.1896,-1.189,-1.2108,-1.2149,-1.2316,-1.2032,-1.2036,-1.2039,0,-1.1141,-1.1173,-1.1199,-1.1222,-1.1254,-1.1307,-1.1389,-1.1446,-1.1484,-1.152,-1.159,-1.1677,-1.1634,-1.1666,-1.1648,-1.1709,-1.185,-1.1655,-1.1655,-1.1694,-1.2012,-1.205,-1.2078,-1.1825,-1.1829,-1.1833,-1.201,0,-1.0909,-1.0977,-1.1046,-1.1096,-1.1134,-1.1219,-1.1206,-1.1249,-1.1227,-1.1227,-1.1328,-1.1349,-1.1409,-1.1436,-1.1416,-1.1558,-1.1534,-1.1487,-1.141,-1.1552,-1.161,-1.1634,-1.1324,-1.1321,-1.1319,-1.1318,0,0,-1.0705,-1.0803,-1.0777,-1.0855,-1.0886,-1.083,-1.0922,-1.0946,-1.0997,-1.1021,-1.0977,-1.1105,-1.1125,-1.1249,-1.1292,-1.1315,-1.1341,-1.1292,-1.1483,-1.1502,-1.1519,-1.1582,-1.1606,-1.1314,-1.1314,-1.1313,-1.1312,0,-1.0619,-1.0637,-1.0726,-1.075,-1.0784,-1.0779,-1.0801,-1.0825,-1.083,-1.0927,-1.0882,-1.0941,-1.1043,-1.1072,-1.1099,-1.1275,-1.124,-1.1293,-1.1393,-1.1464,-1.1485,-1.1503,-1.1569,-1.1593,-1.1307,-1.1308,-1.1308,0,-1.0453,-1.0469,-1.0511,-1.0578,-1.06,-1.0667,-1.0582,-1.0656,-1.0706,-1.0643,-1.0741,-1.0752,-1.0788,-1.0905,-1.0957,-1.092,-1.1149,-1.1073,-1.1086,-1.1093,-1.1161,-1.1186,-1.1208,-1.0912,-1.091,-1.0909,0,0,-1.038,-1.0443,-1.0454,-1.0558,-1.0575,-1.057,-1.0604,-1.0586,-1.0618,-1.0632,-1.0645,-1.0679,-1.0738,-1.0779,-1.0834,-1.0964,-1.0971,-1.1025,-1.1044,-1.1059,-1.1074,-1.1146,-1.1171,-1.0904,-1.0904,-1.0904,0,0,-1.0346,-1.0363,-1.0335,-1.0454,-1.0485,-1.0505,-1.057,-1.0537,-1.0585,-1.0575,-1.0549,-1.0557,-1.0667,-1.068,-1.0613,-1.0807,-1.0731,-1.0746,-1.0795,-1.0819,-1.0837,-1.0834,-1.0532,0,0,0,0,0,-1.0252,-1.0361,-1.0335,-1.0353,-1.0438,-1.0518,-1.0529,-1.0511,-1.0457,-1.0509,-1.0515,-1.0473,-1.0639,-1.058,-1.0599,-1.0674,-1.0839,-1.0851,-1.0862,-1.0956,-1.098,-1.1001,0,0,0,0,0,0,-1.0259,-1.0281,-1.0332,-1.0356,-1.0375,-1.0514,-1.042,-1.0418,-1.0451,-1.0441,-1.0473,-1.0474,-1.0461,-1.0568,-1.0586,-1.0658,-1.0526,-1.0844,-1.0854,-1.0862,-1.0964,-1.0984,-1.1001,0,0,0,0,0,-1.0265,-1.0282,-1.0424,-1.0355,-1.0371,-1.0372,-1.0415,-1.0413,-1.0439,-1.0448,-1.0448,-1.0421,-1.0463,-1.0477,-1.0579,-1.0651,-1.0514,-1.0521,-1.085,-1.0858,-1.0865,-1.0974,0,0,0,0,0,0,-1.0269,-1.0281,-1.0427,-1.0431,-1.0312,-1.0364,-1.0371,-1.0409,-1.0443,-1.0443,-1.0394,-1.0387,-1.0466,-1.0476,-1.0487,-1.0649,-1.0504,-1.0511,-1.0515,-1.0856,-1.0862,-1.0867,0,0,0,0,0,0,-1.0272,-1.0285,-1.0429,-1.0377,-1.0375,-1.0356,-1.0363,-1.0447,-1.0444,-1.0387,-1.0381,-1.0391,-1.0451,-1.0476,-1.0485,-1.0616,-1.0496,-1.0503,-1.0507,-1.051,-1.0861,-1.0866,0,0,0,0,0,0,-1.0277,-1.0289,-1.0375,-1.0374,-1.0372,-1.042,-1.043,-1.0519,-1.0397,-1.0386,-1.0386,-1.0381,-1.0452,-1.046,-1.0483,-1.0612,-1.0615,-1.0496,-1.0501,-1.0504,-1.0506,0,0,0,0,0,0,0,-1.0282,-1.0206,-1.0401,-1.0372,-1.037,-1.0472,-1.0473,-1.0474,-1.0396,-1.0392,-1.0387,-1.0383,-1.0459,-1.0466,-1.0474,-1.0608,0,0,-1.0496,-1.0499,0,0,0,0,0,0,0,0,-1.0201,-1.0205,-1.0401,-1.0402,-1.0403,-1.0472,-1.0473,-1.0474,-1.0395,-1.0392,-1.0388,-1.0385,-1.0461,-1.0467,-1.0473,0,0,0,0,0,0,0,0,0,0,0,0,0,0,0,-1.0401,-1.0402,0,-1.0472,-1.0473,-1.0473,-1.0395,-1.0392,-1.0389,-1.0386,-1.0463,-1.0468,-1.0472,0,0,0,0,0,0,0,0,0,0,0,0,0,0,0,0,0,0,0,0,0,0,0,0,0,0,0,0,0,0,0,0,0,0,0,0,0,0,0,0,0,0,0,0,0,0,0,0,0,0,0,0,0,0,0,0,0,0,0,0,0,0,0,0,0,0,0,0,0]}],[{"header":{"parameterUnit":"kt","parameterCategory":2,"dx":1,"dy":1,"la1":30.253999710083008,"la2":30.299108505249023,"lo1":-89.0895004272461,"lo2":-89.04439544677734,"nx":28,"ny":28,"refTime":"2022-09-18T21:00:00:Z","depth":0,"parameterNumber":2,"parameterNumberName":"V-component_of_WINDS"},"data":[-5.4255,-5.4418,-5.4457,-5.466,-5.4729,-5.4874,-5.4938,-5.5025,-5.5104,-5.5281,-5.5389,-5.5444,-5.5537,-5.5675,-5.5794,-5.5815,-5.5863,-5.5894,-5.5914,-5.5744,-5.5723,-5.5702,-5.5667,-5.5904,-5.5904,-5.6085,-5.6087,-5.6088,-5.413,-5.42,-5.4318,-5.4459,-5.4561,-5.4555,-5.4666,-5.4751,-5.4881,-5.4979,-5.5087,-5.5246,-5.5376,-5.546,-5.5591,-5.5667,-5.5672,-5.57,-5.5695,-5.571,-5.553,-5.5492,-5.5695,-5.5695,-5.5695,-5.5695,-5.5694,-5.5694,-5.3911,-5.4007,-5.4114,-5.4243,-5.4324,-5.4418,-5.4516,-5.458,-5.4696,-5.4838,-5.486,-5.5007,-5.5111,-5.5286,-5.5354,-5.547,-5.5445,-5.5487,-5.5499,-5.5509,-5.5516,-5.5252,-5.5493,-5.5493,-5.5493,-5.5492,-5.5492,0,-5.3763,-5.3788,-5.3904,-5.4032,-5.4128,-5.423,-5.433,-5.4391,-5.4456,-5.4549,-5.4686,-5.4771,-5.494,-5.5073,-5.5203,-5.5265,-5.5268,-5.5271,-5.5301,-5.5294,-5.527,-5.5286,-5.4991,-5.5264,-5.5262,-5.5261,-5.526,-5.5259,-5.3546,-5.3652,-5.3782,-5.3858,-5.3922,-5.4044,-5.4125,-5.4174,-5.4257,-5.4386,-5.4468,-5.4602,-5.4711,-5.4924,-5.4997,-5.5122,-5.5125,-5.5225,-5.5143,-5.5132,-5.5128,-5.5121,-5.5133,-5.524,-5.5242,-5.5244,-5.5246,0,-5.342,-5.3481,-5.3658,-5.3776,-5.3809,-5.3918,-5.4018,-5.4115,-5.4167,-5.4308,-5.4343,-5.4424,-5.4557,-5.4614,-5.4777,-5.4803,-5.4984,-5.4982,-5.4949,-5.4952,-5.5048,-5.5039,-5.535,-5.5394,-5.5148,-5.515,-5.5152,0,-5.3259,-5.3397,-5.348,-5.3579,-5.3734,-5.378,-5.3932,-5.3991,-5.4081,-5.4192,-5.4204,-5.4308,-5.4364,-5.4476,-5.4514,-5.4672,-5.4702,-5.4732,-5.474,-5.4732,-5.4728,-5.4776,-5.4765,-5.4754,-5.4752,-5.4751,-5.4749,0,-5.3057,-5.3262,-5.3423,-5.348,-5.3618,-5.3693,-5.3754,-5.3855,-5.3933,-5.4042,-5.4093,-5.4218,-5.4286,-5.4382,-5.4429,-5.4372,-5.4623,-5.4554,-5.4653,-5.4652,-5.4706,-5.4702,-5.4963,-5.4747,-5.4747,-5.4746,-5.4746,0,-5.2936,-5.3047,-5.3271,-5.3387,-5.3439,-5.3545,-5.3671,-5.3775,-5.388,-5.3911,-5.3997,-5.4012,-5.4153,-5.4081,-5.4277,-5.4189,-5.4256,-5.4296,-5.4304,-5.4321,-5.4238,-5.4379,-5.4621,-5.4649,-5.4336,-5.4332,-5.4329,0,-5.2688,-5.2931,-5.2972,-5.3184,-5.3304,-5.331,-5.3428,-5.3521,-5.3572,-5.3681,-5.3736,-5.386,-5.3818,-5.3864,-5.3954,-5.4016,-5.4131,-5.4002,-5.4159,-5.4164,-5.4132,-5.4355,-5.4378,-5.4562,-5.4286,-5.4291,-5.4294,0,-5.2503,-5.267,-5.2705,-5.2772,-5.2901,-5.3001,-5.3137,-5.3269,-5.334,-5.3441,-5.3557,-5.3731,-5.3707,-5.3783,-5.3807,-5.3897,-5.4054,-5.3859,-5.3862,-5.3893,-5.4269,-5.429,-5.432,-5.4051,-5.4056,-5.406,-5.426,0,-5.2309,-5.2438,-5.2534,-5.2679,-5.2765,-5.29,-5.296,-5.3043,-5.3058,-5.3108,-5.3278,-5.3367,-5.3501,-5.355,-5.3565,-5.3753,-5.3731,-5.3703,-5.3637,-5.3782,-5.385,-5.3877,-5.3532,-5.353,-5.3529,-5.3528,0,0,-5.2057,-5.2242,-5.2282,-5.2416,-5.2491,-5.2494,-5.2633,-5.2706,-5.2853,-5.2905,-5.2869,-5.3127,-5.3201,-5.3401,-5.345,-5.3504,-5.3543,-5.349,-5.3712,-5.3732,-5.3751,-5.3822,-5.385,-5.3525,-5.3525,-5.3524,-5.3524,0,-5.1999,-5.2075,-5.2212,-5.229,-5.2406,-5.2453,-5.2486,-5.2601,-5.264,-5.2806,-5.2805,-5.2914,-5.3118,-5.3197,-5.3264,-5.3467,-5.3461,-5.3503,-5.3593,-5.3696,-5.3718,-5.3738,-5.3812,-5.3838,-5.352,-5.3521,-5.3521,0,-5.1828,-5.1914,-5.1986,-5.2156,-5.2232,-5.2354,-5.23,-5.2431,-5.2522,-5.2517,-5.2682,-5.274,-5.285,-5.303,-5.3113,-5.3082,-5.3382,-5.3297,-5.3307,-5.3318,-5.3421,-5.3447,-5.3471,-5.316,-5.3158,-5.3157,0,0,-5.1769,-5.1889,-5.1994,-5.2148,-5.2196,-5.2266,-5.2337,-5.2359,-5.2458,-5.2498,-5.2572,-5.2668,-5.2787,-5.2864,-5.2979,-5.3168,-5.3195,-5.325,-5.3267,-5.3281,-5.3299,-5.3405,-5.3431,-5.3151,-5.3151,-5.3151,0,0,-5.1741,-5.187,-5.1868,-5.2053,-5.2148,-5.2262,-5.2353,-5.2353,-5.2462,-5.2453,-5.2495,-5.2523,-5.2692,-5.2748,-5.2666,-5.2957,-5.289,-5.2911,-5.2914,-5.2936,-5.2953,-5.2936,-5.2622,0,0,0,0,0,-5.1712,-5.1854,-5.1851,-5.1891,-5.2105,-5.2264,-5.2291,-5.233,-5.2283,-5.2354,-5.2416,-5.2404,-5.2713,-5.2641,-5.268,-5.2771,-5.3079,-5.3091,-5.3104,-5.3152,-5.3175,-5.3194,0,0,0,0,0,0,-5.1728,-5.1777,-5.1847,-5.1966,-5.2015,-5.2259,-5.2187,-5.2201,-5.2276,-5.2271,-5.2392,-5.2407,-5.2443,-5.2624,-5.2658,-5.2744,-5.2611,-5.3084,-5.3095,-5.3104,-5.316,-5.3179,-5.3195,0,0,0,0,0,-5.1741,-5.178,-5.2113,-5.1965,-5.2007,-5.2093,-5.2182,-5.2193,-5.2252,-5.2347,-5.2362,-5.2274,-5.2444,-5.2476,-5.2645,-5.2728,-5.2587,-5.26,-5.3091,-5.3099,-5.3107,-5.3169,0,0,0,0,0,0,-5.1751,-5.1792,-5.2122,-5.2137,-5.1913,-5.208,-5.2107,-5.2186,-5.2323,-5.2339,-5.223,-5.2225,-5.2447,-5.2471,-5.2495,-5.272,-5.2568,-5.2581,-5.2589,-5.3097,-5.3104,-5.311,0,0,0,0,0,0,-5.1771,-5.1804,-5.213,-5.2063,-5.207,-5.2068,-5.2092,-5.224,-5.2325,-5.2199,-5.2199,-5.2226,-5.241,-5.2469,-5.2487,-5.2717,-5.2553,-5.2566,-5.2574,-5.258,-5.3103,-5.3108,0,0,0,0,0,0,-5.1785,-5.1814,-5.206,-5.2065,-5.2071,-5.2234,-5.2199,-5.2416,-5.2268,-5.2193,-5.2256,-5.225,-5.2408,-5.2428,-5.2482,-5.2704,-5.2714,-5.2554,-5.2562,-5.2568,-5.2572,0,0,0,0,0,0,0,-5.1797,-5.1599,-5.2038,-5.2067,-5.2072,-5.2269,-5.2272,-5.2276,-5.2267,-5.2262,-5.2257,-5.2253,-5.2483,-5.2497,-5.251,-5.2693,0,0,-5.2553,-5.2559,0,0,0,0,0,0,0,0,-5.1588,-5.1596,-5.2038,-5.2041,-5.2044,-5.2269,-5.2272,-5.2275,-5.2266,-5.2262,-5.2258,-5.2254,-5.2487,-5.2498,-5.2509,0,0,0,0,0,0,0,0,0,0,0,0,0,0,0,-5.2039,-5.2041,0,-5.227,-5.2272,-5.2275,-5.2265,-5.2262,-5.2259,-5.2256,-5.249,-5.2499,-5.2508,0,0,0,0,0,0,0,0,0,0,0,0,0,0,0,0,0,0,0,0,0,0,0,0,0,0,0,0,0,0,0,0,0,0,0,0,0,0,0,0,0,0,0,0,0,0,0,0,0,0,0,0,0,0,0,0,0,0,0,0,0,0,0,0,0,0,0,0,0]}]]]